www.pogodaiklimat.ru

Погода и климат >> Архив погоды >> Польша >> Wroclaw


АРХИВ ПОГОДЫ в Wroclaw

Время (UTC), дата Ветер
(напр.,м/с)
 
Видим.   Явления Облачность Т
(С)
Тd
(С)
f
(%)
Тe
(С)
Тes
(С)
Комфортность P
(гПа)
Po
(гПа)
Тmin
(С)
Tmax
(С)
R
(мм)
R24
(мм)
S
(см)
11 12.07 ЮВ 3
{11}
15 км гроза, ливневой дождь 9/9 600 м
[Cb cap]
+14.5 +12.2 86 +14 +15 очень
холодно
1014.2 999.7
10 12.07 СЗ 2 40 км в посл. час ливневой дождь 9/9 1000 м
[Cb cap]
+19.7 +12.2 62 +22 +23 комфорт 1013.1 998.9
12 12.07 СЗ 1
{11}
9000 м слабый ливневой дождь, в посл. час гроза 9/9 180 м
[Cb cap]
+14.8 +13.8 94 +15 +17 очень
холодно
1014.1 999.6 9
13 12.07 ЮВ 2 40 км в посл. час ливневой дождь 8/1 600 м
[Cu med, cong Ac cuf Ci ing]
+18.9 +13.3 70 +20 +28 прохладно 1013.5 999.2
14 12.07 ЮЗ 4 40 км 6/1 600 м
[Cu med, cong Ac cuf Ci ing]
+20.1 +12.6 62 +22 +27 комфорт 1012.8 998.6
15 12.07 ЮЗ 5 40 км {ливн. осадки} 8/5 1000 м
[Cu Sc Ac cuf Ci fib]
+20.1 +11.8 59 +22 +23 комфорт 1012.4 998.2
17 12.07 В 2 40 км в посл. час ливневой дождь 9/9 210 м
[Sc]
+16.7 +13.2 80 +17 +17 холодно 1012.6 998.2
16 12.07 З 5 40 км 9/9 1000 м
[Cu Sc]
+17.8 +11.4 66 +17 +18 холодно 1012.6 998.3
18 12.07 ЮВ 1 50 км {ливн. осадки} 9/9 1000 м
[Sc]
+17.2 +11.9 71 +18 +18 прохладно 1012.5 998.2 +14.3 +21.7 9
19 12.07 З 3 50 км 9/9 1000 м
[Sc]
+17.0 +13.5 80 +17 +17 по сезону 1012.7 998.4
20 12.07 З 3 50 км 9/9 1000 м
[Sc]
+16.6 +14.1 85 +16 +16 по сезону 1013.2 998.8
21 12.07 З 3 50 км 9/9 1000 м
[Sc]
+16.5 +14.3 87 +16 +16 по сезону 1013.3 998.9
23 12.07 СЗ 2 30 км 3/3 600 м
[Sc]
+15.2 +13.4 89 +15 +15 тепло 1014.1 999.6
22 12.07 З 2 40 км 9/9 600 м
[Sc]
+16.2 +14.4 89 +16 +16 тепло 1013.7 999.3
00 13.07 СЗ 2 18 км 9/9 400 м
[Sc]
+15.0 +13.4 90 +15 +15 по сезону 1014.3 999.8
01 13.07 СЗ 1 8000 м дымка 1/1 450 м
[Sc]
+13.6 +12.2 91 +14 +14 по сезону 1014.5 1000.0
02 13.07 З 2 7000 м дымка 1/0
[Ac trans Ci fib]
+12.3 +11.4 94 +11 +11 прохладно 1014.9 1000.3
03 13.07 З 2 5000 м дымка 4/3 60 м
[St Ac trans Ci fib]
+12.7 +12.1 96 +12 +12 прохладно 1015.3 1000.7
05 13.07 СЗ 2 3500 м дымка 9/9 60 м
[St]
+14.4 +13.8 96 +14 +14 по сезону 1015.7 1001.2
04 13.07 З 3 1700 м дымка 10/10 60 м
[St]
+13.6 +13.1 97 +12 +12 прохладно 1015.5 1000.9
06 13.07 З 2 6000 м дымка 9/9 90 м
[St]
+15.7 +14.2 91 +16 +16 по сезону 1015.8 1001.3 +11.9 +17.3
07 13.07 З 3 12 км 8/4 240 м
[St Ac cast Ci sp]
+17.3 +14.6 84 +17 +20 прохладно 1015.8 1001.4
08 13.07 З 3 25 км 9/9 300 м
[Cu Sc]
+19.2 +14.2 73 +21 +22 комфорт 1015.8 1001.5
09 13.07 З 3 35 км 9/9 600 м
[Cu Sc]
+19.7 +14.5 72 +22 +23 комфорт 1015.9 1001.6
11 13.07 З 5
{9}
25 км слабый ливневой дождь 9/9 600 м
[Cb cap]
+20.9 +15.7 72 +24 +25 комфорт 1015.8 1001.6
10 13.07 З 4
{9}
40 км 9/9 600 м
[Cu Sc]
+21.3 +15.4 69 +24 +26 комфорт 1015.9 1001.7
12 13.07 СЗ 6-11
{11}
40 км в посл. час ливневой дождь 9/9 600 м
[Cb cap]
+22.8 +15.6 64 +27 +28 душно 1015.3 1001.2 0.0
13 13.07 СЗ 4
{10}
40 км в посл. час ливневой дождь 8/3 600 м
[Cb cap Ac cuf Ci ing]
+24.2 +15.4 58 +27 +31 жарко 1014.8 1000.8
14 13.07 З 4
{9}
40 км 9/4 1000 м
[Cu med, cong Ac cuf Ci ing]
+25.0 +14.5 52 +28 +30 жарко 1014.2 1000.2
15 13.07 СЗ 3
{10}
40 км в посл. час ливневой дождь 9/8 400 м
[Cb cap Ac cuf]
+23.3 +15.1 60 +27 +28 душно 1014.9 1000.8
17 13.07 С 2 40 км в посл. час ливневой дождь 9/6 1000 м
[Cb cap Ac cuf]
+21.1 +15.4 70 +24 +24 комфорт 1015.2 1001.0
16 13.07 СВ 3 30 км слабый ливневой дождь 9/6 1000 м
[Cb cap Ac cuf]
+20.6 +14.7 69 +24 +24 комфорт 1014.9 1000.7
18 13.07 С 2
{10}
50 км {ливн. осадки} 5/5 1000 м
[Cb cap Ac cuf]
+20.2 +14.6 70 +23 +23 комфорт 1015.5 1001.3 +15.7 +26.1 0.5
19 13.07 З 1 50 км 4/3 1000 м
[Cu med, cong Ac cuf]
+18.3 +13.6 74 +20 +20 тепло 1015.7 1001.4
20 13.07 З 3 50 км 9/4 2000 м
[Sc Ac trans]
+17.7 +13.8 78 +18 +18 по сезону 1016.4 1002.0
21 13.07 З 3 50 км 5/4 1000 м
[Sc Ac trans]
+17.3 +13.6 79 +17 +17 по сезону 1016.7 1002.3
23 13.07 З 3 40 км 4/0
[Ac trans]
+16.2 +14.0 87 +16 +16 тепло 1016.6 1002.2
22 13.07 З 2 50 км 9/3 600 м
[Cb cap Ac trans]
+17.0 +13.7 81 +17 +17 тепло 1016.5 1002.1
00 14.07 З 3 40 км 5/0
[Ac trans]
+16.3 +14.1 87 +16 +16 по сезону 1016.7 1002.3
01 14.07 З 3 40 км 5/0
[Ac trans]
+15.8 +13.6 87 +15 +15 по сезону 1016.8 1002.3
02 14.07 З 3 40 км 6/0
[Ac trans]
+15.8 +13.3 85 +15 +15 по сезону 1016.9 1002.4
03 14.07 СЗ 3 40 км 5/0
[Ac trans]
+15.5 +12.8 84 +15 +15 по сезону 1016.9 1002.4
05 14.07 З 3 40 км 6/0
[Ac As]
+17.1 +12.8 76 +17 +18 по сезону 1016.9 1002.5
04 14.07 З 3 40 км 6/0
[Ac trans]
+15.8 +12.9 83 +15 +16 по сезону 1017.0 1002.5
06 14.07 З 4 40 км 9/6 1500 м
[Sc Ac As]
+17.8 +13.1 74 +18 +18 тепло 1017.0 1002.6 +15.2 +20.2
07 14.07 СЗ 4 50 км 6/3 1500 м
[Sc Ac cast]
+20.3 +13.3 64 +23 +25 комфорт 1017.0 1002.8
08 14.07 СЗ 4-9
{9}
50 км 5/3 600 м
[Cu Sc Ac trans]
+22.2 +14.3 61 +25 +30 комфорт 1016.9 1002.7
09 14.07 СЗ 6
{9}
50 км 6/5 1000 м
[Cb calv Ac trans]
+24.1 +13.3 51 +26 +29 жарко 1016.8 1002.7
11 14.07 СЗ 4
{11}
50 км слабый ливневой дождь 5/4 1500 м
[Cb calv Ac trans]
+25.4 +13.3 47 +27 +34 жарко 1016.3 1002.3
10 14.07 СЗ 4-10
{10}
50 км 5/3 1500 м
[Cb calv Ac trans]
+24.9 +12.8 47 +27 +33 жарко 1016.6 1002.6
12 14.07 СЗ 3
{11}
40 км в посл. час ливневой дождь 8/5 1500 м
[Cb calv Ac cuf]
+25.1 +13.0 47 +27 +31 жарко 1015.9 1001.9 0.0
13 14.07 С 3
{10}
40 км в посл. час гроза {ливн. осадки} 6/4 1500 м
[Cb cap Ac cuf]
+25.6 +12.8 45 +27 +33 жарко 1015.4 1001.4
14 14.07 З 8
{10}
30 км гроза без осадков 8/5 1500 м
[Cb cap Ac cuf]
+22.7 +14.3 59 +26 +27 жарко 1015.1 1001.0
15 14.07 СЗ 3
{14}
30 км гроза, ливневой дождь 9/5 1500 м
[Cb cap Ac cuf Ci ing]
+21.0 +16.4 75 +25 +27 комфорт 1015.7 1001.5
17 14.07 С 2 50 км 6/3 1500 м
[Cb cap Ac cuf Ci ing]
+24.3 +14.7 55 +27 +28 жарко 1015.3 1001.3
16 14.07 СЗ 2 50 км в посл. час гроза {ливн. осадки} 8/3 1500 м
[Cb cap Ac cuf Ci ing]
+23.1 +15.9 64 +28 +29 душно 1015.3 1001.2
18 14.07 СЗ 2
{14}
50 км {гроза, ливн. осадки} 5/1 1000 м
[Cu med, cong Ac cuf]
+23.8 +15.0 58 +27 +27 жарко 1015.2 1001.1 +17.8 +26.7 0.4
19 14.07 СЗ 1 50 км 5/1 1000 м
[Cu med, cong Ac cast]
+21.6 +14.5 64 +25 +25 комфорт 1015.5 1001.3
20 14.07 СЗ 1 50 км 5/0
[Ac trans]
+20.1 +14.5 70 +23 +23 комфорт 1016.0 1001.8
21 14.07 СЗ 1 50 км 8/5 1500 м
[Sc Ac trans]
+18.9 +14.0 73 +21 +21 комфорт 1016.3 1002.0
23 14.07 СЗ 2 40 км 3/0
[Ac trans]
+17.2 +13.7 80 +18 +18 тепло 1016.4 1002.0
22 14.07 СЗ 1 40 км 3/0
[Ac trans]
+18.6 +13.9 74 +20 +20 тепло 1016.2 1001.9
00 15.07 СЗ 2 40 км 3/0
[Ac trans]
+17.2 +13.5 79 +18 +18 тепло 1016.6 1002.2
01 15.07 СЗ 2 40 км 3/0
[Ac trans]
+16.5 +13.4 82 +17 +17 тепло 1016.6 1002.2
02 15.07 СЗ 2 35 км 3/0
[Ac trans]
+15.3 +13.0 86 +15 +15 по сезону 1016.8 1002.3
03 15.07 СЗ 2 30 км 3/0
[Ac trans Ci sp]
+14.5 +12.9 90 +14 +14 по сезону 1017.2 1002.7
05 15.07 З 3 25 км 8/5 1000 м
[Sc Ac trans Ci fib]
+15.7 +14.1 90 +15 +16 по сезону 1017.6 1003.1
04 15.07 СЗ 2 25 км 3/0
[Ac trans Ci fib]
+14.1 +12.8 92 +14 +14 прохладно 1017.4 1002.8
06 15.07 СЗ 2 30 км 1/1 1000 м
[Sc Ac trans Ci fib]
+17.3 +13.0 76 +18 +22 тепло 1017.5 1003.1 +13.7 +23.8
07 15.07 СЗ 2 40 км 1/1 600 м
[Cu hum]
+18.6 +13.5 72 +20 +27 по сезону 1017.4 1003.1
08 15.07 СЗ 3 50 км 1/1 600 м
[Cu hum]
+20.3 +13.0 63 +23 +31 комфорт 1017.3 1003.0
09 15.07 С 3 50 км 1/1 600 м
[Cu hum]
+22.0 +12.5 55 +25 +35 комфорт 1016.9 1002.7
11 15.07 СЗ 3
{8}
50 км 1/1 1000 м
[Cu hum Ci fib]
+23.9 +11.9 47 +26 +38 жарко 1016.1 1002.0
10 15.07 СЗ 3
{8}
50 км 1/1 1000 м
[Cu hum Ci fib]
+23.1 +13.0 53 +26 +38 жарко 1016.5 1002.4
12 15.07 С 5
{10}
50 км 1/1 1500 м
[Cu hum Ci fib]
+25.2 +10.3 39 +26 +34 жарко 1015.6 1001.6
13 15.07 С 3
{9}
30 км дым 4/1 1500 м
[Cu hum Ci sp]
+26.0 +10.2 37 +27 +36 жарко 1014.9 1001.0
14 15.07 СЗ 3 40 км 3/1 1500 м
[Cu hum Ci sp]
+26.3 +10.0 36 +27 +34 жарко 1014.4 1000.5
15 15.07 С 3
{9}
50 км 3/1 1500 м
[Cu hum Ci fib]
+26.7 +9.5 34 +27 +32 жарко 1014.0 1000.1
17 15.07 СЗ 2 50 км 3/1 1500 м
[Sc diur, vesp Ci fib]
+26.4 +7.4 30 +26 +28 жарко 1013.5 999.6
16 15.07 С 2
{8}
50 км 4/1 1500 м
[Sc diur, vesp Ci fib]
+26.8 +8.7 32 +27 +30 жарко 1013.7 999.8
18 15.07 С 2
{9}
50 км 1/0
[Ci fib]
+25.4 +9.6 37 +26 +26 жарко 1013.7 999.7 +17.3 +27.0
19 15.07 С 1 50 км 1/0
[Ci sp]
+23.5 +10.5 44 +25 +25 комфорт 1014.1 1000.0
20 15.07 СЗ 1 50 км 1/0
[Ci sp]
+20.1 +11.6 58 +23 +23 комфорт 1014.3 1000.1
21 15.07 СЗ 1 50 км ясно +17.8 +11.8 68 +19 +19 тепло 1014.7 1000.4
23 15.07 З 1 50 км 3/3 300 м
[Sc]
+15.6 +11.8 78 +16 +16 тепло 1014.9 1000.5
22 15.07 З 1 50 км ясно +16.4 +12.2 76 +17 +17 тепло 1014.9 1000.5
00 16.07 З 1 50 км 3/3 1500 м
[Sc]
+14.8 +11.6 81 +15 +15 по сезону 1014.9 1000.4
01 16.07 З 2 50 км 3/3 1500 м
[Sc]
+14.9 +10.7 76 +15 +15 по сезону 1014.9 1000.4
02 16.07 СЗ 2 50 км 1/1 1500 м
[Sc]
+15.0 +10.4 74 +15 +15 по сезону 1015.0 1000.5
03 16.07 СЗ 1 50 км осадки на расстоянии 1/1 1500 м
[Sc Ac cast]
+14.7 +10.3 75 +15 +15 по сезону 1014.5 1000.0
05 16.07 СЗ 2 50 км 1/0
[Ac cast]
+16.1 +12.1 77 +16 +18 по сезону 1014.5 1000.1
04 16.07 З 3 50 км 1/1 1500 м
[Sc Ac trans]
+13.8 +11.0 83 +13 +13 прохладно 1014.6 1000.1
06 16.07 З 3 50 км 1/0
[Ac cast]
+18.7 +14.0 74 +20 +23 тепло 1014.2 999.9 +13.0 +25.4
07 16.07 СЗ 2 50 км 1/0
[Ac trans]
+20.7 +14.8 69 +24 +32 комфорт 1013.8 999.6
08 16.07 СЗ 2 50 км 1/0
[Ac trans]
+22.7 +14.5 60 +26 +37 жарко 1013.5 999.4
09 16.07 С 2 50 км 3/1 1000 м
[Cu med, cong]
+24.7 +14.8 54 +27 +39 жарко 1013.3 999.3
11 16.07 СЗ 2-8
{8}
50 км 4/3 1500 м
[Cu med, cong Ac trans Ci fib]
+26.8 +13.2 43 +29 +39 жарко 1012.0 998.1
10 16.07 СЗ 2 50 км 4/4 1000 м
[Cu med, cong Ac trans Ci fib]
+25.4 +14.2 50 +28 +38 жарко 1012.8 998.9
12 16.07 С 3
{8}
50 км 5/3 1500 м
[Cu med, cong Ac trans Ci fib]
+27.3 +12.9 41 +29 +37 жарко 1011.6 997.8
13 16.07 С 4 50 км 6/5 1500 м
[Cu med, cong Ac trans Ci sp]
+27.8 +13.0 40 +29 +33 жарко 1010.8 997.0
14 16.07 С 3 50 км 5/4 1500 м
[Cu med, cong Ac trans Ci sp]
+27.9 +13.0 40 +30 +34 жарко 1010.0 996.2
15 16.07 С 4 50 км 5/3 1500 м
[Cu med, cong Ac trans Ci fib]
+27.6 +11.6 37 +29 +31 жарко 1009.7 995.9
17 16.07 С 3 50 км 5/0
[Ac cuf Ci sp]
+27.5 +11.1 36 +28 +29 жарко 1009.4 995.6
16 16.07 СВ 4 50 км 5/3 2000 м
[Sc diur, vesp Ac trans Ci sp]
+27.5 +10.7 35 +28 +30 жарко 1009.6 995.8
18 16.07 СВ 3 50 км 9/1 2000 м
[Sc diur, vesp Ac As Ci sp]
+25.8 +15.2 52 +29 +29 душно 1009.4 995.5 +18.7 +28.4
19 16.07 СВ 2 50 км 9/1 2000 м
[Sc diur, vesp Ac As]
+23.9 +14.6 56 +27 +27 жарко 1010.0 996.0
20 16.07 С 2 50 км 9/3 1500 м
[Sc Ac As]
+22.9 +13.4 55 +26 +26 жарко 1010.2 996.2
21 16.07 С 2 50 км в посл. час дождь 9/1 1500 м
[Sc Ac As]
+22.0 +13.1 57 +25 +25 комфорт 1010.3 996.2
23 16.07 СЗ 1 50 км 9/0
[Ac As]
+20.3 +14.6 70 +24 +24 комфорт 1010.0 995.9
22 16.07 СЗ 1 50 км 9/0
[Ac As]
+21.1 +14.0 64 +24 +24 комфорт 1010.3 996.2
00 17.07 З 2 50 км {дождь} 6/1 1000 м
[Sc Ac trans Ci fib]
+18.8 +14.5 76 +20 +20 тепло 1010.1 995.9 0.0
01 17.07 СЗ 1 40 км 8/4 1500 м
[Sc Ac trans]
+18.4 +14.3 77 +20 +20 тепло 1009.8 995.6
02 17.07 СЗ 2 40 км 8/3 1500 м
[Sc Ac trans]
+17.8 +14.1 79 +18 +18 тепло 1009.8 995.5
03 17.07 СЗ 2 30 км 6/3 1500 м
[Sc Ac trans]
+17.4 +14.5 83 +18 +18 тепло 1009.7 995.4
05 17.07 СЗ 3 30 км 9/9 1000 м
[Sc]
+18.5 +15.2 81 +19 +20 тепло 1009.6 995.4
04 17.07 З 3 30 км 9/3 1500 м
[Sc Ac As]
+17.6 +14.7 83 +18 +18 тепло 1009.8 995.5
06 17.07 СЗ 2 5000 м слабый ливневой дождь 10/9 50 м
[Cb cap]
+17.6 +16.8 95 +18 +18 тепло 1009.7 995.4 +16.9 +25.8 5
07 17.07 З 4 5000 м дождь {ливн. осадки} 10/8 90 м
[Frnb As op]
+17.9 +17.1 95 +18 +18 прохладно 1009.5 995.2
08 17.07 СЗ 3 7000 м слабый дождь 10/8 90 м
[Frnb As op]
+18.1 +17.1 94 +18 +19 прохладно 1009.3 995.1
09 17.07 СЗ 2 8000 м слабый дождь {ливн. осадки} 10/9 150 м
[Frnb]
+18.5 +17.3 93 +20 +21 по сезону 1009.5 995.3
11 17.07 СЗ 4
{9}
10 км слабый дождь 10/10 210 м
[Sc]
+19.2 +17.7 91 +21 +21 комфорт 1009.5 995.3
10 17.07 СЗ 4
{8}
7000 м слабый дождь 10/9 150 м
[Frnb]
+18.9 +17.7 93 +20 +21 холодно 1009.5 995.3
12 17.07 З 4
{9}
8000 м слабый дождь {ливн. осадки} 10/9 210 м
[Frnb]
+19.0 +17.8 93 +21 +21 комфорт 1009.5 995.3 6
13 17.07 З 4
{9}
9000 м слабый дождь 10/9 180 м
[Sc]
+19.2 +18.0 93 +21 +22 комфорт 1009.1 994.9
14 17.07 З 4 4500 м дождь 10/8 60 м
[Sc As op]
+19.4 +18.4 94 +22 +22 комфорт 1008.9 994.7
15 17.07 СЗ 4
{9}
10 км слабый дождь 10/8 180 м
[Sc Ac As]
+19.9 +18.6 92 +23 +23 комфорт 1008.5 994.4
17 17.07 СЗ 3 25 км слабый дождь 10/3 270 м
[Sc Ac As]
+19.8 +17.9 89 +23 +23 комфорт 1008.5 994.3
16 17.07 СЗ 3 15 км слабый дождь 10/4 600 м
[Sc Ac As]
+19.9 +18.0 89 +23 +24 комфорт 1008.5 994.4
18 17.07 СЗ 3
{9}
25 км слабый дождь 10/6 600 м
[Sc Ac As]
+19.6 +17.9 90 +22 +22 комфорт 1008.5 994.3 +17.6 +20.2 9
19 17.07 СЗ 3 20 км в посл. час дождь 10/9 400 м
[Sc]
+19.5 +18.2 92 +22 +22 комфорт 1008.6 994.4
20 17.07 СЗ 3 25 км в посл. час ливневой дождь 10/9 330 м
[Cb cap]
+19.6 +17.9 90 +22 +22 комфорт 1008.6 994.4
21 17.07 СЗ 4
{9}
7000 м слабый дождь {ливн. осадки} 10/9 210 м
[Frnb]
+19.0 +17.8 93 +21 +21 комфорт 1008.2 994.0
23 17.07 СЗ 4
{8}
15 км в посл. час дождь 10/9 180 м
[St]
+18.8 +17.6 93 +20 +20 тепло 1008.1 993.9
22 17.07 СЗ 3
{9}
15 км слабый дождь 10/9 180 м
[Frnb]
+18.8 +17.8 94 +20 +20 тепло 1008.3 994.1
00 18.07 СЗ 4-9
{10}
15 км {ливн. осадки, дождь} 10/9 150 м
[St]
+18.7 +17.5 93 +20 +20 тепло 1007.8 993.6 0.9
01 18.07 СЗ 4
{8}
15 км слабый дождь 10/9 180 м
[Frnb]
+18.9 +17.4 91 +20 +20 тепло 1007.6 993.4
02 18.07 СЗ 4-9
{10}
7000 м слабый дождь 10/9 60 м
[Frnb]
+18.6 +17.4 93 +19 +19 тепло 1007.4 993.2
03 18.07 СЗ 5-10
{10}
12 км слабый дождь 10/9 50 м
[Frnb]
+18.8 +17.5 92 +20 +20 тепло 1007.6 993.4
05 18.07 СЗ 5-11
{11}
8000 м слабый дождь 10/9 150 м
[Frnb]
+18.5 +17.2 92 +19 +19 тепло 1008.2 994.0
04 18.07 СЗ 5-10
{10}
10 км слабый дождь 10/9 180 м
[Frnb]
+18.5 +17.2 92 +19 +19 тепло 1007.8 993.6
06 18.07 СЗ 4-9
{11}
6000 м слабый дождь 10/9 90 м
[Frnb]
+18.3 +17.1 93 +19 +19 тепло 1008.8 994.6 +18.3 +19.6 2
07 18.07 СЗ 4-9
{10}
6000 м слабый дождь 10/9 90 м
[Frnb]
+18.1 +16.8 92 +18 +18 прохладно 1009.3 995.1
08 18.07 СЗ 4-10
{10}
6000 м слабый дождь 10/9 90 м
[Frnb]
+17.8 +16.8 94 +18 +18 прохладно 1009.7 995.4
09 18.07 СЗ 4
{10}
9000 м слабый дождь 10/9 180 м
[Frnb]
+18.2 +17.0 93 +18 +19 по сезону 1010.1 995.8
11 18.07 СЗ 3
{8}
3000 м слабый ливневой дождь 10/9 90 м
[Cb cap]
+18.5 +17.7 95 +19 +20 очень
холодно
1010.9 996.7
10 18.07 СЗ 4
{12}
8000 м слабый ливневой дождь 10/9 90 м
[Cb cap]
+18.3 +17.1 93 +19 +19 холодно 1010.6 996.3
12 18.07 СЗ 4-10
{12}
8000 м слабый дождь {ливн. осадки} 10/9 150 м
[Frnb]
+18.7 +17.4 92 +20 +20 прохладно 1011.1 996.9 13
13 18.07 СЗ 4
{9}
12 км слабый ливневой дождь 9/9 150 м
[Cb cap]
+18.8 +17.5 92 +20 +21 холодно 1011.6 997.4
14 18.07 СЗ 4 15 км слабый ливневой дождь 9/9 180 м
[Cb cap]
+18.7 +17.4 92 +20 +20 прохладно 1012.1 997.8
15 18.07 СЗ 3-9
{9}
18 км слабый дождь {ливн. осадки} 9/9 300 м
[Sc]
+18.7 +17.2 91 +20 +21 прохладно 1012.3 998.0
17 18.07 СЗ 2
{8}
6000 м слабый дождь 10/9 90 м
[Frnb]
+18.9 +17.6 92 +21 +21 комфорт 1013.0 998.7
16 18.07 СЗ 3-8
{9}
25 км слабый дождь 9/9 400 м
[Sc]
+19.1 +17.2 89 +21 +21 комфорт 1012.6 998.4
18 18.07 СЗ 2
{9}
15 км в посл. час дождь {ливн. осадки} 10/9 360 м
[Sc]
+19.1 +17.8 92 +21 +21 комфорт 1012.9 998.7 +17.8 +19.2 15
19 18.07 СЗ 2 12 км 10/9 1000 м
[Sc]
+19.2 +17.9 92 +22 +22 комфорт 1013.1 998.9
20 18.07 СЗ 2 8000 м слабый дождь 10/9 1000 м
[Sc]
+19.1 +17.6 91 +21 +21 комфорт 1013.4 999.1
21 18.07 СЗ 4 15 км в посл. час дождь 10/9 1000 м
[Sc]
+19.0 +17.5 91 +20 +20 тепло 1013.2 998.9
23 18.07 СЗ 2 15 км 10/9 1000 м
[Sc]
+18.7 +17.0 90 +20 +20 тепло 1013.4 999.1
22 18.07 СЗ 3 15 км 10/9 1000 м
[Sc]
+18.9 +17.2 90 +20 +20 тепло 1013.2 998.9
00 19.07 СЗ 3 15 км {дождь} 10/9 1000 м
[Sc]
+18.6 +17.1 91 +20 +20 тепло 1013.2 998.9 0.0
01 19.07 СЗ 3 15 км 10/9 600 м
[Sc]
+18.6 +17.1 91 +20 +20 тепло 1012.9 998.6
02 19.07 З 3 15 км 10/9 1000 м
[Sc]
+18.6 +17.3 92 +20 +20 тепло 1012.8 998.5
03 19.07 СЗ 3 15 км 10/9 1000 м
[Sc]
+18.8 +17.1 90 +20 +20 тепло 1012.9 998.6
05 19.07 СЗ 3 25 км 9/0
[Ac As]
+18.7 +16.3 86 +20 +20 тепло 1013.4 999.1
04 19.07 СЗ 3 18 км 10/9 1000 м
[Sc]
+18.7 +16.8 89 +20 +20 тепло 1013.1 998.8
06 19.07 СЗ 4 25 км 9/1 600 м
[Sc Ac As]
+18.6 +15.7 83 +19 +20 тепло 1013.5 999.2 +18.5 +19.3 0.0
07 19.07 З 5 25 км 9/6 360 м
[Sc Ac As]
+18.9 +15.9 83 +20 +21 тепло 1013.4 999.1
08 19.07 СЗ 4
{9}
25 км 9/6 360 м
[Sc Ac As]
+19.2 +16.1 82 +21 +22 комфорт 1013.5 999.2

 

Местоположение метеостанции Wroclaw (Польша): широта 51.10 долгота 16.88 высота над уровнем моря 124 м.

В архиве по умолчанию представлена погода в Wroclaw за последнюю неделю. Архивные данные за месяц целиком и за предыдущие месяцы, начиная с января 2011 года, Вы можете получить, выбрав интересующий диапазон дат из раскрывающегося списка и нажав кнопку "Ввод!".


*Определитесь, кто Вы:
робот инопланетянин человек

Внимание! Время в таблицах - всемирное. Для получения местного времени необходимо прибавить поправку, которая в Wroclaw равна 1 ч.

Смотрите также архив погоды в соседних городах и на ближайших метеорологических станциях:

Погода в Legnica (Польша) (49 км)
Погода в Klodzko (Польша) (77 км)
Погода в Jelenia Gora (Польша) (79 км)
Погода в Opole (Польша) (83 км)
Погода в Leszno (Польша) (85 км)
Погода в Snezka (Чехия) (89 км)
Погода в Sniezka (Польша) (91 км)
Погода в Polom (Чехия) (92 км)
Погода в Pec pod Snezkou (Чехия) (93 км)
Погода в Serak (Чехия) (104 км)

Пояснения к столбцам:

Ветер - указаны скорость ветра в м/с - средняя за 10 мин, порывы в срок и между сроками (в фигурных скобках) и направление, откуда дует ветер: С - северный, СВ - северо-восточный, В - восточный, ЮВ - юго-восточный, Ю - южный, ЮЗ - юго-западный, З - западный, СЗ - северо-западный.
Видимость - горизонтальная дальность видимости в метрах или километрах. При видимости от 1 до 10 км при отсутствии осадков обычно наблюдается дымка, при ухудшении видимости до 1 км и менее - туман. В сухую погоду видимость может ухудшаться дымом, пылью или мглою.
Явления - указаны атмосферные явления, наблюдавшиеся в срок или в последний час перед сроком; фигурными скобками обозначены явления, наблюдавшиеся между сроками (за 1-3 часа до срока); квадратными скобками обозначены град или гололедные отложения с указанием их диаметра в мм.
Облачность - указаны через наклонную черту общая и нижняя облачность в баллах и высота нижней границы облаков в метрах; квадратными скобками обозначены формы облаков: Ci - перистые, Cs - перисто-слоистые, Cc - перисто-кучевые, Ac - высококучевые, As - высокослоистые, Sc - слоисто-кучевые, Ns - слоисто-дождевые, Cu - кучевые, Cb - кучево-дождевые. Подробнее классификацию облаков см. в Атласе облаков (PDF).
T - Температура воздуха - температура, измеренная на высоте 2 м над землей.
Td - Температура точки росы - температура, при понижении до которой содержащийся в воздухе водяной пар достигнет насыщения.
f - Относительная влажность воздуха - влажноcть воздуха, измеренная на высоте 2 м над землей.
Te - Эффективная температура - температура, которую ощущает одетый по сезону человек в тени. Характеристика душности погоды. При расчете учитывается влияние влажности воздуха и скорости ветра на теплоощущения человека.
Tes - Эффективная температура на солнце - температура, которую ощущает человек, с поправкой на солнечный нагрев. Характеристика знойности погоды. Зависит от высоты солнца над горизонтом, облачности и скорости ветра. Ночью, в пасмурную погоду, а также при ветре 12 м/с и более поправка равна нулю.
P - Атмосферное давление - приведенное к уровню моря атмосферное давление.
Po - Атмосферное давление - измеренное на уровне метеостанции атмосферное давление.
Tmin - Минимальная температура - минимум температуры воздуха на высоте 2 м над землей.
Tmax - Максимальная температура - максимум температуры воздуха на высоте 2 м над землей.
R - Количество осадков - Количество выпавших осадков за период времени, мм. При наведении курсора мыши на число - период времени, за который выпало указанное количество осадков.
R24 - Количество осадков - Количество выпавших осадков за 24 часа, мм.
S - Снежный покров - Высота снежного покрова, см. При наведении курсора мыши на число - состояние снежного покрова и степень покрытия местности в баллах.